Theta_e
308 309 309 308 310 301 305 303 302 305 310 309 303 303 300 300 299 298 308 305 310 315 315 317 321 322 323 324 324 326 331 334 335 335 335 336 337 338 339 338 337 337 338 339 338 340 340 340 340 341 344 345 344 342 341 341 341 341 341 341 341 343 345
308 310 310 309 307 310 305 302 306 307 309 312 309 298 300 299 295 299 302 300 305 305 300 320 320 320 322 322 323 325 331 334 333 334 335 336 336 338 339 339 339 338 337 338 337 338 340 340 340 343 346 347 346 344 342 340 340 340 340 340 341 342 343
308 308 310 309 309 308 308 307 311 305 301 301 306 307 294 294 294 297 299 300 303 307 306 315 318 320 322 323 325 326 329 331 332 333 335 337 337 337 336 336 336 336 336 337 337 336 338 341 344 345 345 345 344 342 343 341 339 340 340 341 342 343 344
307 309 310 304 305 308 308 309 306 308 308 311 305 303 305 302 296 295 297 300 299 314 311 315 316 324 326 324 324 325 328 331 332 333 335 335 336 335 335 335 335 335 335 335 335 335 336 340 341 341 339 340 339 340 341 341 341 342 341 341 343 342 345
306 304 308 307 307 304 304 306 305 306 305 305 306 303 302 300 299 297 297 295 302 312 319 319 321 326 326 326 325 327 329 331 333 334 335 336 336 335 334 335 335 335 335 334 334 335 338 340 341 338 337 338 338 338 338 339 340 340 338 339 340 340 343
304 306 308 307 308 309 307 306 305 306 302 302 299 299 301 301 300 294 296 296 305 313 322 325 325 325 325 328 329 328 330 331 333 334 335 336 335 335 335 334 334 334 335 334 334 335 338 338 335 335 337 338 337 336 336 337 336 336 335 338 339 340 341
305 306 309 309 308 307 307 308 307 308 310 310 304 295 300 301 301 302 302 298 303 317 317 319 321 323 324 328 329 329 330 331 332 333 334 336 336 334 333 334 334 334 335 334 335 337 337 337 339 340 340 337 337 337 337 337 336 336 335 335 339 341 339
307 308 308 309 306 308 307 307 306 306 305 306 306 306 311 303 301 300 299 298 303 315 318 319 321 323 323 327 328 330 330 330 331 332 333 334 333 333 333 334 334 335 334 335 336 337 338 338 339 340 340 340 339 338 337 337 336 337 337 336 336 338 339
303 305 309 308 309 309 308 308 306 307 307 306 306 307 309 303 304 305 300 295 303 314 317 322 322 322 321 323 325 328 328 329 329 331 332 333 333 332 332 333 334 333 331 332 334 337 338 339 339 341 341 341 339 340 339 337 337 336 337 338 336 337 338
294 294 295 298 303 305 307 308 305 307 307 305 307 303 305 298 304 303 300 301 307 316 320 319 322 322 324 325 325 326 328 329 328 329 330 331 331 331 332 333 332 331 332 335 336 337 338 339 340 341 341 341 341 341 340 339 337 338 337 337 335 335 334
302 304 309 310 311 308 305 305 305 304 306 308 312 312 305 300 300 301 301 309 309 310 312 318 321 323 324 325 325 324 325 326 328 330 330 329 330 331 331 332 332 333 333 334 336 337 337 339 340 340 340 340 340 341 341 340 339 338 339 339 339 336 335
312 311 308 305 314 307 308 306 304 305 305 306 307 305 304 311 302 298 302 305 305 308 313 317 320 322 325 326 326 325 325 326 326 328 329 328 329 330 332 331 331 331 332 334 335 337 337 339 340 339 340 340 341 341 340 340 339 337 338 339 338 336 335
305 303 306 308 308 309 309 309 306 304 307 306 306 310 309 309 304 302 310 305 307 310 312 315 318 323 324 326 327 327 327 327 328 328 327 326 327 328 329 330 331 332 332 333 335 336 337 339 338 338 338 339 340 341 340 341 339 338 340 339 338 336 336
304 304 307 306 308 306 307 307 308 307 305 306 307 309 308 307 309 311 311 310 309 311 313 315 319 321 319 323 326 325 324 323 326 326 326 326 326 327 328 329 330 332 333 335 336 337 338 338 338 337 338 339 339 339 338 338 339 339 340 338 336 335 335
305 305 307 307 307 308 305 304 305 304 305 305 305 306 306 308 307 308 308 309 309 315 317 317 319 322 320 320 320 321 323 324 324 325 325 327 327 327 328 330 331 332 333 335 336 336 337 338 338 338 339 339 340 338 337 337 339 340 339 336 336 335 334
303 304 305 305 307 306 306 307 307 306 304 305 306 307 311 308 308 313 309 306 308 316 319 316 318 317 319 319 322 322 322 323 325 324 326 327 327 328 328 330 331 332 332 334 335 336 337 339 339 339 338 339 340 338 338 338 337 338 337 335 333 334 334
304 302 306 305 305 305 303 304 307 309 308 310 308 309 311 312 313 308 305 306 314 318 322 318 321 320 321 321 321 322 323 324 325 325 326 327 328 329 330 331 331 331 332 334 336 337 339 339 338 339 340 339 338 340 340 340 340 337 335 334 335 334 335
304 303 304 305 303 297 299 313 312 312 308 307 306 307 309 313 312 310 312 313 318 318 317 316 319 321 322 322 324 325 325 324 325 326 328 329 329 330 330 331 331 332 334 335 336 338 340 340 338 340 341 340 340 341 341 340 337 337 336 336 335 333 334
302 304 305 301 296 298 313 313 311 310 310 312 311 314 315 315 315 314 311 313 316 319 319 319 321 321 321 322 322 322 323 326 327 327 327 329 329 329 330 331 332 334 335 336 337 337 337 337 338 338 339 339 340 339 338 336 336 335 335 335 334 334 334
304 303 302 294 298 308 311 313 312 314 311 310 310 309 312 314 313 316 314 316 319 321 319 319 320 320 321 322 324 325 325 325 326 326 327 328 329 330 331 332 333 335 335 336 336 337 338 337 336 336 337 338 336 337 338 336 336 335 335 334 333 334 334
302 304 302 301 308 306 310 308 310 310 312 310 309 304 310 320 318 315 315 318 320 319 319 319 320 321 320 320 324 325 324 325 327 328 328 328 329 331 333 334 335 338 338 338 338 339 338 336 336 336 336 336 336 337 336 335 335 334 333 333 333 334 334
306 303 300 301 300 298 305 317 320 315 314 317 320 313 308 321 319 317 318 318 322 321 319 319 320 322 320 317 321 324 323 325 326 328 329 329 331 333 333 335 335 337 337 337 337 336 335 335 336 337 337 336 336 336 336 335 334 333 333 332 334 335 335
302 302 299 299 298 302 313 314 316 313 314 314 316 308 303 318 323 319 318 318 321 321 320 321 321 319 313 314 320 326 324 324 325 325 326 326 327 330 331 331 332 334 335 336 334 335 335 334 336 337 337 336 335 335 336 334 333 333 334 335 335 335 336
305 304 300 298 304 303 312 315 313 309 313 315 311 298 300 318 320 319 319 320 322 321 322 321 321 319 312 314 321 324 325 325 326 328 328 328 328 329 331 332 334 336 336 335 334 333 333 335 337 337 336 335 334 335 334 334 333 334 335 336 339 338 337
303 301 302 302 304 311 312 311 311 310 313 312 302 294 305 322 323 321 322 323 324 324 322 321 319 324 327 326 324 322 325 325 326 328 330 330 330 330 328 329 332 332 333 333 334 335 336 337 337 335 334 334 334 336 337 336 335 335 337 339 338 336 336
302 303 300 301 305 311 313 311 310 313 309 301 299 311 325 326 323 321 322 323 324 324 324 323 326 324 322 323 323 323 324 326 329 327 327 327 327 328 331 333 334 332 331 333 334 334 337 336 334 334 335 334 335 337 336 335 337 338 340 338 337 336 336
300 302 299 296 291 307 309 311 311 312 306 308 321 325 318 318 325 322 321 323 323 324 324 324 326 323 319 320 323 324 326 327 328 328 327 327 328 327 329 330 332 332 332 331 331 333 333 332 333 333 333 334 336 336 335 337 339 340 338 336 336 336 336
299 299 296 295 306 313 311 313 309 312 315 320 317 319 318 322 321 323 324 324 325 324 326 322 322 324 324 324 326 327 327 328 329 330 331 331 331 330 329 328 331 332 333 334 333 333 330 332 333 333 334 334 335 335 335 339 339 337 335 335 335 335 336
303 302 306 314 317 313 314 315 316 319 320 319 320 319 319 323 322 324 324 325 324 325 327 325 325 322 325 327 327 329 329 328 327 329 331 330 330 330 329 327 330 330 331 334 334 332 332 333 334 335 334 334 335 334 337 339 336 335 334 335 336 335 336
312 313 312 313 314 315 315 315 316 315 316 317 318 317 319 321 324 324 323 325 324 324 327 324 324 326 326 326 324 325 326 328 329 329 329 329 330 328 328 329 329 329 330 330 331 331 333 333 333 334 334 334 334 336 338 336 336 335 335 335 334 334 335
303 300 315 313 314 314 315 315 317 317 317 318 320 321 320 323 322 321 323 325 325 324 324 326 325 326 324 326 328 329 329 329 330 329 331 331 329 329 330 330 329 329 329 328 329 330 330 332 331 330 332 332 334 336 335 334 334 335 334 333 332 334 335
305 306 314 312 313 316 317 315 315 317 318 319 320 323 325 324 322 323 323 324 323 323 323 327 327 325 325 326 328 329 330 331 331 331 333 331 330 329 327 327 328 329 329 330 329 330 330 332 330 329 329 331 331 332 330 330 330 332 331 332 332 333 332
308 313 314 310 311 317 318 317 318 318 319 320 319 320 321 321 321 320 321 323 323 322 324 326 327 325 327 329 330 323 327 328 328 330 332 331 330 328 327 327 328 328 330 329 331 331 330 329 328 328 328 327 328 330 330 330 332 332 333 333 332 332 330
304 303 306 308 303 304 309 311 315 319 319 318 320 319 320 321 322 321 320 319 321 322 324 325 326 327 327 326 327 319 325 328 330 331 331 330 327 327 326 325 327 329 329 329 329 329 329 327 328 328 328 329 329 328 330 332 333 333 333 331 329 326 326
302 307 308 311 309 310 312 315 319 320 318 318 320 323 322 322 324 322 321 318 319 319 320 325 327 328 328 328 331 326 322 329 331 331 329 327 326 325 326 325 326 326 327 327 328 326 327 327 327 328 328 328 330 329 332 332 331 333 331 329 327 325 326
306 308 308 311 311 309 312 314 316 318 321 318 316 317 319 322 322 322 323 323 321 322 324 322 327 330 331 330 328 327 327 326 325 326 326 327 327 326 327 326 326 326 326 327 327 327 328 328 328 329 327 328 330 328 330 330 332 332 331 328 327 326 325
306 309 310 313 315 315 316 317 317 319 322 319 317 318 319 319 319 322 323 324 326 324 324 324 323 324 327 325 324 326 326 325 325 324 327 327 326 326 325 325 326 326 327 327 328 328 328 328 328 327 327 328 329 327 331 330 331 330 330 328 324 324 326
Wind_Speed
2 2 5 1 1 8 5 4 6 1 3 5 6 3 3 2 1 3 2 4 4 5 5 3 3 4 7 5 8 9 10 11 12 11 12 12 12 11 11 11 10 10 8 7 7 7 6 6 7 7 7 7 6 5 5 5 4 4 3 3 2 1 1
3 1 3 7 5 2 8 5 5 6 1 2 1 3 1 1 4 2 3 5 3 2 2 2 3 6 6 6 9 11 10 11 13 13 13 13 13 13 12 10 9 9 9 9 8 7 8 8 8 8 7 6 4 4 5 5 4 4 4 3 3 2 1
5 1 3 7 5 4 2 1 10 4 3 5 2 2 3 3 5 3 3 3 5 5 4 1 4 7 7 7 8 10 12 13 15 14 14 12 11 10 10 11 9 9 8 9 8 8 7 7 6 6 5 5 5 4 4 4 4 3 2 2 2 1 1
2 2 3 8 3 7 6 8 5 3 2 2 5 1 1 2 0 2 2 1 4 6 3 5 4 6 5 7 9 12 15 15 13 13 14 14 13 12 11 11 11 10 10 10 10 9 9 8 7 6 6 6 7 6 5 5 4 3 3 3 2 3 2
2 6 5 8 9 8 4 6 3 2 4 1 2 2 0 2 3 2 1 4 4 3 5 5 6 4 8 11 11 11 12 13 13 12 12 12 12 12 11 11 11 10 10 9 8 7 6 6 5 6 6 7 7 5 6 6 6 5 4 3 3 3 2
7 3 3 3 4 5 9 9 8 7 8 6 4 3 2 1 2 2 4 6 4 1 2 6 4 2 6 10 10 10 11 11 12 11 12 11 10 10 11 11 11 11 9 8 7 5 4 5 7 7 6 6 6 7 6 6 5 5 5 3 3 3 3
3 3 3 3 2 2 3 2 3 4 3 3 4 4 4 1 1 3 2 2 5 2 1 2 4 3 5 7 9 9 10 11 11 11 11 10 9 10 12 12 11 10 9 8 7 8 8 8 7 6 5 6 6 7 7 6 6 6 6 4 3 2 3
2 1 1 3 2 2 4 1 2 6 7 5 5 3 3 5 5 3 2 4 4 2 2 2 4 5 5 5 8 10 8 8 9 11 11 10 9 9 9 10 8 7 7 6 5 6 6 6 7 7 6 6 5 6 7 6 7 7 6 5 4 3 4
2 1 3 3 2 2 3 2 4 1 4 6 5 6 1 2 5 3 4 8 5 3 0 1 2 4 6 7 8 8 8 7 9 11 10 8 9 10 11 10 8 7 7 7 7 7 7 7 7 6 6 6 6 7 7 7 7 7 5 5 4 4 5
7 7 6 8 8 8 3 2 4 3 7 11 6 4 3 4 2 4 3 7 3 1 2 2 2 2 5 6 6 8 8 7 8 9 9 9 10 11 11 11 9 10 9 7 6 7 6 7 7 6 6 7 7 7 7 7 7 6 6 5 5 5 6
9 10 5 4 5 6 7 5 8 7 2 2 3 4 4 8 3 6 4 5 4 3 1 3 3 4 8 6 7 8 9 9 7 7 7 9 10 11 13 12 9 8 7 9 8 8 8 8 7 6 7 7 7 6 7 7 6 6 5 5 5 5 6
1 4 2 2 2 7 3 9 8 6 7 8 8 7 6 7 7 5 3 5 6 8 6 6 7 6 7 6 6 8 8 9 11 11 10 9 8 8 8 9 11 11 10 8 8 9 8 8 7 6 6 6 6 6 7 7 6 6 5 5 6 6 6
1 1 3 1 1 3 4 6 10 10 8 8 11 5 5 7 6 9 3 5 5 6 6 7 8 5 5 7 8 9 8 7 8 10 12 13 14 13 13 11 11 11 11 10 9 9 9 8 8 8 6 6 5 5 6 5 6 7 6 5 6 6 6
4 3 0 1 4 4 5 5 7 6 9 8 6 3 5 9 6 2 1 5 11 9 7 9 10 1 5 5 2 3 7 10 10 12 13 14 14 14 14 13 12 11 11 10 10 9 9 9 9 8 7 7 7 7 8 7 7 7 4 5 6 6 6
2 2 2 3 4 4 6 2 1 2 3 3 2 1 2 1 5 7 7 7 12 7 10 13 9 2 4 6 7 8 8 9 12 13 13 13 14 14 13 13 12 10 10 9 9 9 10 10 10 8 7 7 7 8 9 9 8 6 5 5 6 6 7
2 2 2 4 4 4 3 2 5 5 6 6 4 4 5 4 4 2 1 5 7 4 3 5 6 5 6 9 8 7 7 9 11 13 13 14 14 14 14 13 11 10 10 10 11 11 11 10 9 8 8 8 7 9 8 8 7 5 5 5 6 6 6
2 2 0 5 5 3 3 7 11 11 6 2 3 0 3 9 5 6 6 8 4 5 1 4 4 4 6 7 6 6 6 9 12 13 14 14 14 14 13 13 13 12 13 12 12 11 10 9 9 10 9 7 9 9 8 7 4 5 6 6 5 6 6
3 3 3 2 4 7 5 2 4 7 10 11 8 6 8 8 7 4 3 6 3 3 4 6 8 6 4 3 3 3 5 8 10 11 12 12 13 12 13 13 14 12 9 8 10 11 10 10 10 8 8 9 8 7 6 4 5 5 5 5 5 6 6
4 3 3 4 9 7 4 2 2 1 3 5 7 2 3 4 7 7 8 10 9 10 8 7 6 4 6 6 7 6 8 9 9 12 12 12 12 13 13 12 10 10 10 9 8 8 9 9 8 7 7 8 7 6 5 5 5 5 5 5 6 6 6
4 3 5 5 3 2 4 2 3 3 5 4 2 5 8 9 10 10 9 11 11 6 5 4 3 4 4 4 5 7 7 10 9 10 11 13 13 13 12 13 11 10 10 11 12 12 9 7 8 9 9 8 8 8 6 6 5 5 5 5 6 6 7
4 2 7 5 4 4 3 2 4 7 4 6 4 7 4 5 5 9 7 9 7 4 3 3 2 3 2 3 4 5 7 8 9 10 10 13 14 13 11 12 12 11 11 10 10 6 6 8 9 9 9 8 9 7 6 6 5 5 5 6 7 7 7
1 3 3 2 4 8 4 7 0 1 2 2 3 4 7 4 6 7 9 9 4 3 2 2 3 3 1 3 2 4 7 8 9 7 6 6 5 5 7 6 5 5 6 6 5 7 9 10 11 8 8 8 8 7 7 6 6 6 6 7 7 7 7
3 3 5 5 6 4 1 7 2 3 1 5 6 2 8 4 6 9 9 8 5 6 5 5 5 4 4 4 1 3 7 8 8 9 8 7 8 8 9 10 10 9 8 8 8 8 9 11 11 10 9 9 8 8 7 7 7 6 7 7 7 7 7
4 5 5 7 4 3 3 5 2 1 2 4 2 7 6 3 6 8 9 9 8 7 6 7 5 6 6 4 2 3 8 8 8 9 9 8 8 8 7 7 7 6 5 5 7 10 11 13 9 10 9 9 9 8 7 6 7 7 8 8 6 4 5
4 6 4 2 3 4 6 5 3 4 3 5 7 6 8 3 3 7 9 9 8 9 9 8 6 4 2 2 2 4 7 7 6 6 7 7 6 7 9 8 7 6 7 8 10 12 11 7 7 8 8 9 9 8 6 6 8 8 7 4 2 4 4
5 3 5 4 2 2 2 3 3 5 6 5 8 4 2 1 5 6 7 6 7 10 10 8 2 4 2 2 3 5 7 7 6 6 6 5 5 5 5 5 7 7 8 9 10 10 7 5 6 7 8 9 8 7 6 8 10 7 4 2 3 4 5
3 2 2 0 3 2 3 10 5 1 4 4 2 2 2 2 3 7 7 7 8 9 8 7 4 4 4 4 3 5 5 5 6 7 7 8 9 9 8 8 10 8 8 9 11 9 4 6 7 7 9 9 8 7 8 10 7 4 2 3 4 5 5
2 3 4 2 0 4 2 5 4 7 7 2 1 2 4 3 3 5 5 6 8 10 9 11 7 5 4 2 3 3 4 4 3 4 5 5 5 6 8 7 5 7 8 8 6 2 3 4 6 8 9 9 7 7 10 7 4 3 3 5 5 5 5
4 2 2 1 1 2 2 3 6 6 6 6 5 3 6 5 5 3 4 7 7 9 9 10 9 7 4 4 4 4 5 5 4 4 4 4 4 3 3 3 2 2 5 6 4 2 2 5 5 7 8 9 8 9 8 4 4 5 6 6 5 4 4
3 4 6 5 5 4 6 6 6 10 11 7 5 7 7 7 4 5 5 5 6 7 6 9 4 4 6 5 4 3 3 3 2 1 1 1 1 2 3 3 2 3 4 5 5 6 4 6 6 6 8 8 9 9 3 4 5 6 6 5 4 4 3
1 1 2 2 6 7 7 7 6 7 9 7 4 5 7 5 3 5 2 3 7 8 8 8 7 4 4 5 4 3 2 3 3 2 2 1 2 2 3 2 1 3 4 5 7 7 7 7 7 7 7 7 6 3 4 4 5 5 4 4 4 3 3
2 1 5 8 10 9 8 6 6 5 4 5 4 4 2 2 1 1 3 5 6 6 7 6 6 5 5 5 4 3 2 2 1 1 1 2 2 3 3 3 4 5 6 7 8 8 7 5 5 5 5 5 6 6 5 5 4 3 4 5 4 3 2
3 3 1 12 15 5 2 2 6 6 4 3 1 2 4 5 6 5 4 3 6 7 6 6 6 7 4 3 4 5 3 2 2 2 2 1 2 1 2 3 5 5 5 6 6 5 3 2 3 4 4 5 4 5 5 4 3 5 4 4 3 2 1
1 3 5 9 8 7 11 14 10 6 3 4 2 3 3 5 7 6 7 5 2 2 5 7 7 7 5 4 4 5 4 3 2 2 1 1 1 2 2 2 3 3 4 4 4 3 1 1 2 2 3 3 3 3 3 4 4 4 3 2 2 2 2
3 4 6 2 4 9 10 10 8 7 5 4 4 2 5 6 6 7 9 8 4 4 3 2 5 7 6 7 4 4 4 3 2 1 1 0 0 0 0 0 1 2 1 1 1 1 1 2 2 2 2 3 3 2 2 3 4 3 3 3 2 2 1
6 3 5 5 2 6 11 15 12 9 2 4 5 5 5 2 2 4 4 8 10 6 4 2 2 2 5 5 6 5 3 3 3 2 2 1 1 2 2 1 1 1 1 1 1 1 1 1 2 2 2 2 2 3 2 2 2 3 3 2 1 1 1
4 5 6 4 5 7 8 8 9 7 3 3 3 3 1 2 3 1 4 4 3 8 7 5 3 1 3 4 2 2 3 3 3 3 4 4 4 3 3 2 2 1 1 1 1 1 2 2 2 3 4 3 2 2 3 3 3 3 3 3 3 3 3
Wind_Direction
181 156 127 40 272 198 163 151 203 141 40 115 106 116 54 25 309 202 105 273 236 281 247 228 247 252 243 220 223 216 208 195 184 191 188 191 192 188 184 190 191 189 188 189 188 183 180 179 182 191 192 190 194 179 175 172 169 175 187 186 187 202 250
39 335 115 87 47 323 118 207 150 117 271 13 141 198 109 191 242 197 177 239 262 347 287 132 230 237 229 214 206 207 198 185 190 195 191 191 192 189 183 182 184 186 188 187 185 182 183 185 191 194 194 191 192 191 190 187 184 195 187 193 200 206 255
106 173 208 100 78 358 262 9 143 182 156 193 30 132 184 196 224 236 188 275 267 224 247 172 231 225 220 202 196 195 195 195 199 196 195 191 187 177 175 184 184 188 190 188 182 184 182 186 195 193 188 189 194 196 192 206 208 204 201 198 200 206 231
146 256 210 189 128 61 67 126 122 349 272 93 159 148 34 269 219 233 165 205 272 185 221 215 246 224 190 178 191 204 203 202 198 196 192 189 186 184 181 182 185 187 191 191 186 183 182 189 195 193 194 198 204 196 193 207 215 215 216 225 213 239 218
181 190 210 202 165 148 141 170 154 119 61 335 50 77 211 246 180 222 302 251 237 195 203 202 238 215 191 184 196 204 206 206 204 201 193 188 186 181 182 181 182 185 186 185 180 179 177 180 187 193 197 205 207 193 201 213 217 220 228 233 231 243 236
204 195 34 338 209 159 166 169 191 161 141 147 200 188 122 249 207 189 199 258 278 202 154 216 244 229 198 200 196 200 208 206 203 201 201 194 183 180 179 180 183 186 181 177 170 166 164 183 201 198 194 206 208 209 216 218 227 231 241 231 236 248 249
175 20 16 329 301 342 18 275 174 170 123 130 171 241 168 171 101 46 33 312 274 93 147 237 259 253 236 215 202 205 203 204 203 203 200 195 183 179 182 182 184 181 175 174 173 175 179 193 196 189 191 210 214 216 221 224 229 236 242 245 237 237 258
324 105 72 75 62 158 161 87 72 165 190 198 209 208 138 176 125 190 159 238 256 113 158 260 250 247 256 244 216 214 205 201 199 194 195 182 169 175 179 183 178 164 164 154 161 173 181 192 196 193 199 208 215 223 229 230 234 239 242 244 245 241 252
123 69 195 157 121 246 213 198 150 351 82 85 92 94 55 201 198 206 172 255 271 116 138 247 235 224 230 229 226 224 220 202 199 192 187 173 171 170 179 178 169 159 163 170 180 179 183 192 195 189 197 208 216 223 226 233 240 243 242 244 249 255 253
179 186 190 210 204 197 138 121 126 175 165 133 158 174 148 236 121 170 220 248 251 315 277 275 233 249 250 240 229 219 226 221 201 194 181 173 174 178 175 172 167 174 177 175 176 181 188 195 194 188 201 213 220 225 229 232 240 238 241 248 255 259 258
196 197 192 21 92 118 192 183 177 155 132 99 90 83 147 227 157 198 214 249 320 291 240 276 231 213 240 230 211 217 211 211 207 191 182 185 183 177 178 175 170 162 169 183 182 186 194 196 189 192 204 215 221 225 233 231 230 240 242 244 250 253 255
268 66 100 165 276 171 127 150 170 152 161 169 160 193 226 109 118 244 218 176 228 256 267 265 256 238 247 250 233 222 214 203 196 188 176 171 175 178 171 171 172 177 182 178 184 190 196 198 188 197 211 218 221 224 233 230 227 230 233 235 244 245 248
141 41 76 235 118 68 156 164 155 172 171 172 196 206 113 162 227 267 94 157 206 252 251 275 279 253 238 243 231 221 215 191 174 165 174 182 183 180 183 184 179 180 179 183 186 190 199 194 193 203 209 217 220 229 235 231 229 229 226 230 239 244 244
114 120 33 294 140 111 116 131 161 162 171 193 209 166 180 195 230 296 42 185 239 250 275 272 271 298 264 271 288 208 199 196 180 181 186 185 181 181 184 184 186 187 184 180 188 191 197 196 199 202 205 212 217 221 226 223 223 225 209 224 236 243 246
98 46 106 97 89 129 129 124 117 119 125 136 184 214 143 247 289 274 254 252 271 249 233 255 274 311 271 260 238 223 207 186 185 186 187 185 184 186 185 182 186 184 180 186 190 195 199 199 200 202 203 210 214 224 227 222 217 215 205 226 233 239 247
158 51 56 70 77 79 112 156 190 168 165 190 185 216 182 192 233 198 214 264 265 268 187 244 262 258 238 239 224 210 200 193 188 192 188 184 186 187 186 185 179 178 184 190 195 200 203 201 199 200 203 207 210 220 221 218 217 201 204 223 236 240 246
156 91 203 133 136 149 207 218 221 193 194 154 113 61 184 213 191 214 236 258 271 295 38 288 255 229 255 254 237 208 198 197 195 194 191 189 189 186 182 182 183 185 190 193 196 202 202 199 199 205 199 199 212 216 214 213 195 203 216 225 231 243 247
133 118 128 138 170 221 211 89 9 162 191 184 181 193 202 210 190 220 231 281 308 260 237 236 271 280 263 278 291 253 217 195 201 202 195 191 189 187 188 189 187 186 187 194 201 204 201 203 206 202 197 204 216 215 214 191 196 208 216 225 231 244 249
141 124 145 161 223 227 84 75 188 359 50 174 203 206 229 205 219 255 267 263 253 245 245 248 255 274 281 265 273 257 221 208 198 194 192 188 186 188 189 188 187 186 191 195 200 205 211 207 201 196 202 209 214 213 204 200 198 204 215 230 234 238 246
82 166 152 222 212 21 292 264 107 96 81 80 79 273 256 245 228 214 234 247 256 257 248 234 217 244 274 284 250 246 221 201 200 189 192 192 190 190 191 186 187 186 191 197 200 209 203 192 202 204 208 202 205 213 197 204 198 201 214 226 237 236 240
203 170 191 245 39 299 162 173 188 184 189 164 198 278 247 221 196 178 214 238 249 248 235 205 199 190 199 275 250 207 208 191 201 201 196 190 192 192 190 186 188 192 196 198 204 195 185 199 201 206 204 195 201 205 200 208 199 204 209 225 235 232 237
198 160 195 245 238 246 212 235 121 164 351 141 135 218 258 219 216 198 214 239 239 206 172 181 164 148 205 233 192 167 185 185 192 199 198 184 181 178 172 182 192 188 198 203 203 203 210 210 210 204 195 194 196 200 208 208 206 209 210 230 233 231 235
154 184 217 205 225 239 155 233 242 89 136 133 121 220 263 227 219 190 202 226 208 198 181 162 168 172 211 214 141 143 170 179 186 184 192 190 190 187 191 192 196 200 196 196 201 205 213 220 210 199 192 194 198 203 210 214 215 215 222 232 231 230 237
188 185 205 226 189 225 181 251 82 183 155 158 164 262 275 232 191 186 180 212 198 187 174 159 185 201 207 173 119 130 171 174 176 178 174 178 182 190 195 207 210 198 173 178 206 215 216 221 202 184 187 196 206 203 209 212 218 224 230 234 231 236 251
145 198 218 359 256 249 261 283 88 142 187 201 209 231 284 156 202 185 189 208 183 162 164 179 186 222 353 42 79 144 157 157 177 187 188 193 185 185 194 204 193 197 203 208 214 214 221 208 176 178 185 195 206 205 203 209 227 231 234 224 225 246 248
185 185 238 242 312 280 346 85 132 150 156 192 222 238 24 186 199 202 203 197 170 173 176 179 181 141 164 120 97 143 169 177 168 176 175 176 192 214 217 198 193 208 212 218 231 238 226 176 179 179 185 199 206 197 201 222 229 232 220 211 227 233 236
65 114 215 44 259 92 89 121 108 110 242 259 9 329 245 220 240 180 204 204 182 177 171 163 179 156 144 114 132 161 170 167 168 178 177 186 196 201 201 212 215 209 213 222 226 230 200 180 177 181 190 203 205 197 213 227 222 207 181 206 222 226 228
238 159 179 205 100 81 193 209 229 187 231 64 48 341 294 214 228 205 188 211 189 187 165 163 176 180 156 138 135 152 168 182 155 171 193 204 215 218 222 226 222 215 232 237 241 188 169 167 181 183 194 203 202 203 223 224 180 163 180 210 215 219 223
216 200 209 103 102 267 301 264 280 285 299 316 327 263 274 288 245 216 226 202 189 193 172 161 163 163 195 145 155 158 164 170 178 180 197 209 227 245 266 289 0 263 261 274 277 254 191 188 188 197 203 207 201 215 227 176 174 190 204 209 209 210 224
302 270 266 315 292 268 271 244 247 275 285 283 243 262 269 248 260 209 212 189 174 179 171 155 176 172 156 149 148 137 122 139 139 118 218 248 260 267 268 262 261 264 265 263 259 252 214 192 198 203 207 206 208 222 181 157 185 199 205 207 216 229 243
318 242 141 241 312 306 282 284 271 261 255 258 244 226 229 260 236 205 240 195 169 166 166 175 164 144 142 144 131 129 124 133 133 158 185 168 205 240 256 239 232 241 240 247 245 239 235 200 201 208 207 211 219 201 179 184 192 198 204 214 229 235 246
216 325 14 342 310 267 268 272 288 281 258 248 249 253 251 141 131 153 155 142 140 152 168 174 155 140 157 149 137 138 134 115 131 154 208 221 214 218 226 232 225 232 228 233 238 232 233 204 190 204 198 205 209 218 222 216 207 193 216 220 224 228 242
287 239 64 355 334 301 260 284 255 256 273 278 206 146 144 147 136 120 117 140 154 171 161 154 154 143 167 152 144 153 136 149 190 206 217 213 258 272 244 239 228 235 241 245 249 248 228 143 173 186 199 207 204 202 216 212 193 205 208 201 211 224 239
277 51 10 5 359 324 320 317 333 324 311 273 188 132 152 150 132 133 122 113 126 175 159 167 162 150 152 161 161 166 161 174 174 178 178 226 236 253 264 278 272 271 273 273 271 249 186 121 165 184 185 188 192 205 191 185 187 199 190 195 195 210 197
286 337 7 15 252 264 263 287 328 336 327 315 294 219 169 170 158 150 135 132 139 155 181 245 160 145 161 171 165 155 165 190 167 69 62 74 275 271 146 266 283 283 303 299 260 204 195 193 198 191 185 177 183 184 168 176 186 177 169 171 205 217 191
270 307 351 344 298 308 308 311 310 304 275 294 307 320 336 345 148 152 152 147 149 154 156 161 348 145 152 146 158 173 151 103 115 132 129 95 49 60 68 28 6 332 326 294 286 293 140 189 179 187 191 183 174 160 158 166 170 159 155 161 187 225 347
312 338 319 308 276 272 281 285 290 284 219 231 286 298 273 234 203 209 160 154 166 159 166 172 136 97 139 126 136 137 128 126 127 122 128 117 99 90 87 91 94 111 134 130 155 186 204 198 192 197 202 182 168 186 183 179 178 160 156 169 197 234 220